Location: Martinez
(33.5170°N, 82.0760°W)
Time: 16:32:04
(UTC-05:00)

Hubble Space Telescope - Visible Passes

Search period start: 17 February 2018 00:00
Search period end: 27 February 2018 00:00
Orbit: 537 x 541 km, 28.5° (Epoch: 16 February)

Date Brightness Start Highest point End Pass type
(mag) Time Alt. Az. Time Alt. Az. Time Alt. Az.
17 Feb 3.2 06:11:57 10° SSW 06:14:44 17° SSE 06:17:30 10° ESE visible
18 Feb 2.9 06:01:14 10° SSW 06:04:22 21° SSE 06:07:30 10° ESE visible
19 Feb 2.6 05:51:20 13° SSW 05:54:01 24° SSE 05:57:24 10° ESE visible
20 Feb 2.3 05:41:50 20° SSW 05:43:41 28° SSE 05:47:14 10° ESE visible
21 Feb 2.0 05:32:15 27° SSW 05:33:21 31° SSE 05:37:02 10° ESE visible
22 Feb 1.8 05:22:37 34° S 05:23:01 35° S 05:26:48 10° ESE visible
23 Feb 1.7 05:12:57 37° SSE 05:12:57 37° SSE 05:16:33 10° ESE visible
24 Feb 2.0 05:03:15 35° SE 05:03:15 35° SE 05:06:17 10° ESE visible
25 Feb 2.4 04:53:33 29° SE 04:53:33 29° SE 04:55:59 10° ESE visible
25 Feb 2.0 06:29:19 10° WSW 06:32:59 31° SSW 06:36:40 10° SE visible
26 Feb 2.8 04:43:51 23° SE 04:43:51 23° SE 04:45:41 10° ESE visible
26 Feb 2.1 06:19:12 10° WSW 06:22:39 28° SSW 06:26:13 10° SE visible
